Location: Allos
(44.2333°N, 6.6333°E)
Time: 00:27:18
(UTC+00:00)

DX 1 - Pass Details

Date: 13 May 2021
Orbit: 618 x 631 km, 98.5° (Epoch: 24 June)

Event Time Altitude Azimuth Distance (km) Brightness Sun altitude
Rises 19:45:50 0° 3° (N) 2,911 ? -9.1°
Reaches altitude 10° 19:48:14 10° 353° (N) 1,998 ? -9.4°
Maximum altitude 19:52:00 30° 293° (WNW) 1,122 ? -9.9°
Drops below altitude 10° 19:55:45 10° 232° (SW) 1,981 ? -10.4°
Sets 19:58:07 0° 222° (SW) 2,881 ? -10.8°
